This demonstration page uses our WeatherBlox Daily Observations layout. Learn more.

Left ArrowRight Arrow

34.02893, -84.19858

Hourly Observations for May 5, 2015

Temp ( °F °C ) Dew Point ( °F °C ) Humidity (%) Winds ( mph kmh ) Pressure ( in mb ) Visibility ( mi km ) Precip ( " mm )
12:53 am 00:53 Clear 60 15.6 53 11.7 78 78 SE 5 7 30.27 1025 8 13 0.00 0.00
1:53 am 01:53 Clear 61 16.1 53 11.7 75 75 Calm 30.27 1025 8 13 0.00 0.00
2:53 am 02:53 Clear 60 15.6 53 11.7 78 78 Calm 30.25 1024 8 13 0.00 0.00
3:53 am 03:53 Clear 58 14.4 53 11.7 84 84 Calm 30.25 1024 8 13 0.00 0.00
4:53 am 04:53 Clear 56 13.3 53 11.7 90 90 Calm 30.27 1025 8 13 0.00 0.00
5:53 am 05:53 Clear 55 12.8 52 11.1 90 90 Calm 30.28 1025 7 11 0.00 0.00
6:53 am 06:53 Sunny with Mist and Fog 54 12.2 52 11.1 93 93 Calm 30.30 1026 5 8 0.00 0.00
7:53 am 07:53 Sunny with Mist and Fog 60 15.6 56 13.3 86 86 Calm 30.32 1027 5 8 0.00 0.00
8:53 am 08:53 Hazy 65 18.3 57 13.9 76 76 NNE 5 7 30.33 1027 6 10 0.00 0.00
9:53 am 09:53 Sunny 69 20.6 55 12.8 61 61 Calm 30.32 1027 9 14 0.00 0.00
10:53 am 10:53 Sunny 71 21.7 54 12.2 55 55 Calm 30.32 1027 9 14 0.00 0.00
11:53 am 11:53 Sunny 76 24.4 53 11.7 45 45 NE 6 9 30.31 1026 9 14 0.00 0.00
12:53 pm 12:53 Sunny 77 25 54 12.2 45 45 VRB 3 6 30.28 1026 9 14 0.00 0.00
1:53 pm 13:53 Sunny 79 26.1 54 12.2 42 42 VRB 5 7 30.26 1025 8 13 0.00 0.00
2:53 pm 14:53 Partly Cloudy 80 26.7 54 12.2 41 41 SE 8 13 30.24 1024 8 13 0.00 0.00
3:53 pm 15:53 Sunny 80 26.7 52 11.1 38 38 SE 10 17 30.22 1023 8 13 0.00 0.00
4:53 pm 16:53 Mostly Sunny 79 26.1 51 10.6 38 38 SE 10 17 30.20 1023 9 14 0.00 0.00
5:53 pm 17:53 Mostly Sunny 79 26.1 51 10.6 38 38 SE 10 17 30.19 1022 9 14 0.00 0.00
6:53 pm 18:53 Sunny 77 25 51 10.6 40 40 SSE 8 13 30.18 1022 9 14 0.00 0.00
7:53 pm 19:53 Sunny 75 23.9 50 10 41 41 ESE 5 7 30.18 1022 9 14 0.00 0.00
8:53 pm 20:53 Clear 70 21.1 52 11.1 53 53 Calm 30.19 1022 10 16 0.00 0.00
9:53 pm 21:53 Clear 67 19.4 52 11.1 59 59 E 3 6 30.21 1023 9 14 0.00 0.00
10:53 pm 22:53 Clear 63 17.2 54 12.2 73 73 Calm 30.22 1023 9 14 0.00 0.00
11:53 pm 23:53 Clear 60 15.6 53 11.7 78 78 Calm 30.22 1023 9 14 0.00 0.00

Powered by AerisWeather